Vorticity
nan nan nan nan nan nan nan nan nan nan nan nan nan nan nan nan nan nan nan nan nan nan nan nan nan nan nan nan nan nan nan nan nan nan nan nan nan nan nan nan nan nan nan nan nan nan nan nan nan
nan 3 6 8 4 5 5 6 11 11 9 5 1 2 4 8 15 14 11 10 5 6 6 8 7 5 4 4 4 4 4 4 4 5 5 6 7 5 5 5 7 7 5 5 6 4 4 5 nan
nan 4 7 7 5 6 9 3 1 10 8 3 4 5 8 8 8 6 11 9 5 5 8 10 6 5 5 4 5 5 5 4 3 4 5 5 4 5 5 5 4 5 6 6 6 4 4 4 nan
nan 4 7 8 8 7 4 4 6 6 4 12 6 3 10 10 10 15 10 4 4 6 8 10 6 5 4 4 4 5 5 5 4 4 5 4 4 5 3 5 4 4 4 5 5 6 5 5 nan
nan 7 6 7 12 11 7 17 10 1 6 11 9 5 3 17 20 11 4 4 4 6 8 8 7 4 4 5 5 5 5 4 4 4 3 3 5 5 3 3 4 4 5 4 4 4 4 4 nan
nan 6 4 4 10 10 7 10 13 8 7 4 8 5 12 18 6 3 4 5 6 7 7 9 7 5 5 5 5 4 4 4 4 3 2 2 2 2 4 4 3 4 4 4 4 4 4 4 nan
nan 3 4 9 7 7 5 6 8 8 1 4 3 5 13 8 6 8 6 6 6 6 6 6 7 8 5 3 4 3 4 4 5 4 3 1 -0 -2 2 3 3 4 4 5 5 5 4 4 nan
nan 6 6 7 8 7 7 6 7 4 8 9 2 7 13 7 7 8 7 5 6 5 6 5 6 7 6 9 7 3 3 4 4 3 4 5 1 1 3 1 4 4 4 4 6 6 5 4 nan
nan 3 6 10 8 4 9 9 6 10 13 2 9 19 15 6 4 4 2 5 7 7 6 5 5 5 7 9 9 9 5 4 4 4 4 2 4 11 9 3 1 3 3 3 4 5 5 5 nan
nan 9 9 9 5 9 8 7 7 14 6 9 20 17 10 6 2 3 3 4 5 7 5 6 7 5 5 5 7 8 6 5 6 8 7 8 7 6 8 11 6 2 0 4 6 7 9 8 nan
nan 7 13 12 5 6 4 7 8 6 10 15 10 8 6 3 4 3 7 8 6 3 5 7 5 6 4 4 5 6 6 7 9 8 6 7 7 6 7 7 8 9 8 6 8 9 10 11 nan
nan 9 10 8 7 6 9 5 6 8 17 15 9 7 4 5 5 5 6 6 8 7 6 6 6 5 4 5 7 6 5 6 7 8 8 7 7 8 7 7 7 5 8 7 7 8 8 9 nan
nan 9 6 8 8 6 8 3 5 10 18 10 8 6 5 4 5 7 6 5 6 7 8 6 5 6 6 5 5 6 7 6 7 7 7 7 8 7 8 7 7 7 7 8 7 7 8 9 nan
nan 10 5 5 10 10 4 4 6 14 14 6 4 4 8 5 3 5 7 7 7 7 9 7 5 7 7 7 6 6 8 7 6 7 9 7 6 7 7 8 7 8 7 7 8 8 8 8 nan
nan 10 8 7 10 8 7 5 15 16 8 5 4 4 5 8 10 7 6 6 7 8 10 9 6 6 7 7 6 5 7 9 7 8 9 8 6 7 8 7 7 8 8 7 7 8 8 6 nan
nan 5 11 12 11 4 2 9 17 12 5 5 5 5 5 6 11 10 8 8 7 10 10 8 8 7 6 5 5 6 9 8 7 8 9 9 7 6 6 7 7 8 8 8 8 8 8 9 nan
nan 10 5 12 8 4 4 13 17 11 4 7 6 6 5 5 7 13 11 10 7 8 9 9 8 7 5 6 8 7 7 6 7 7 8 9 8 8 6 6 8 8 8 8 8 8 7 7 nan
nan 9 9 9 6 10 4 9 15 14 6 7 5 6 6 9 8 7 10 10 6 7 9 7 8 8 6 5 6 8 9 9 9 8 8 7 8 7 7 8 8 8 8 8 9 9 7 8 nan
nan 5 12 12 9 9 7 4 16 19 11 8 8 8 7 8 9 9 12 10 6 6 10 8 5 5 6 6 7 9 10 8 9 11 10 6 7 9 6 7 8 9 9 8 7 9 8 7 nan
nan 10 10 14 14 6 11 6 6 11 23 20 10 8 7 9 12 6 6 13 13 7 5 9 8 7 5 5 7 8 10 9 10 10 10 9 7 8 7 6 8 8 8 8 9 7 8 10 nan
nan 9 9 6 7 9 9 5 9 8 6 20 18 11 8 12 15 13 8 8 10 10 8 8 9 6 6 6 5 6 7 11 10 9 10 11 9 8 7 6 7 7 8 9 9 9 7 7 nan
nan 8 9 7 10 9 4 11 3 8 9 15 19 17 9 7 3 4 8 11 13 11 10 9 9 8 7 7 6 6 6 6 8 10 10 11 10 9 8 7 7 7 7 8 8 8 8 8 nan
nan 7 8 9 7 9 6 16 7 9 8 10 15 15 8 7 1 0 1 4 9 15 15 9 7 5 8 8 6 5 6 7 8 10 11 9 10 11 9 8 8 8 7 8 7 8 8 5 nan
nan 10 8 13 10 8 10 6 6 7 11 9 14 9 7 1 4 9 5 7 9 12 12 13 8 6 7 6 7 7 5 6 6 8 8 9 9 11 11 9 7 7 7 8 8 8 8 7 nan
nan 10 8 5 12 9 9 10 6 5 18 4 3 15 19 4 12 9 7 4 5 6 13 20 7 7 7 8 8 7 7 8 7 7 8 8 8 9 13 9 8 8 8 7 8 9 9 8 nan
nan 7 5 8 10 8 5 7 13 8 5 8 9 15 8 11 14 8 12 11 11 4 0 7 14 18 11 6 8 9 8 6 9 8 9 9 10 9 12 9 10 12 8 8 8 8 9 9 nan
nan 12 9 5 7 12 6 5 5 6 6 14 8 12 10 9 13 7 13 20 14 10 7 3 12 15 7 9 12 9 9 7 8 8 8 8 10 11 9 11 8 5 11 12 10 9 6 8 nan
nan 6 6 13 13 5 10 11 11 8 4 -0 6 3 10 15 16 10 6 7 16 17 15 11 12 9 -1 3 12 16 12 10 8 9 9 7 8 9 7 8 5 7 12 11 8 9 10 10 nan
nan 12 15 15 9 10 9 10 14 7 7 5 10 4 7 13 7 5 7 8 10 11 13 14 18 10 9 8 7 9 10 10 9 9 9 10 10 10 11 10 9 8 7 10 12 8 9 8 nan
nan nan nan nan nan nan nan nan nan nan nan nan nan nan nan nan nan nan nan nan nan nan nan nan nan nan nan nan nan nan nan nan nan nan nan nan nan nan nan nan nan nan nan nan nan nan nan nan nan
CAPE
1585 1015 803 707 43 188 237 503 363 111 212 317 377 437 232 290 370 107 315 645 862 1044 1067 1489 2347 2450 2134 2244 2451 2455 2494 2348 2845 2892 3126 2762 2390 2750 2987 2133 1697 1902 1800 1719 1616 1331 1749 2277 2782
128 117 43 47 38 98 254 66 238 284 277 367 505 397 319 275 494 480 782 820 1077 1113 1365 1422 2248 2445 2296 2345 2641 2581 2307 2113 2313 2842 2865 2815 2488 2382 2439 2553 2484 2116 1772 1629 1645 1674 2528 3025 2514
198 204 15 42 77 166 67 5 409 392 413 334 410 607 371 398 578 502 713 1013 1031 1233 1160 1392 2417 2422 2356 2352 2572 2809 2840 2518 2410 2506 2270 2141 1804 1834 2039 1848 2164 2413 2524 2419 2246 1413 1556 1999 2471
159 368 560 61 133 346 276 322 263 337 232 337 496 553 455 442 423 506 792 846 1004 1191 1080 2074 2536 1907 2218 2552 2776 2543 2353 2404 2262 2123 1870 1775 1719 1632 1600 1733 1873 1662 1716 1913 2195 2408 2512 2369 2074
211 373 226 384 331 338 225 642 456 284 407 522 646 761 583 378 405 481 676 638 806 1031 1333 1504 2455 2718 2629 2711 2467 2471 2074 2052 2030 1950 1763 1526 1346 1269 1253 1256 1282 1385 1700 1780 1586 1444 1445 1759 1918
276 350 179 90 69 309 407 283 418 407 408 790 849 594 381 334 316 388 241 378 1175 1361 1428 1556 2297 2719 2814 2520 2154 2194 1791 1483 1441 1571 1479 1493 1525 1430 1089 1012 1019 1304 1319 1562 1549 1470 1384 1517 1400
346 389 210 68 63 198 453 308 331 473 459 581 665 586 334 207 260 205 329 648 1204 1811 1496 1360 1604 1665 2324 2741 2018 1804 1786 1230 1001 956 746 817 845 871 1190 1211 976 677 713 941 1392 1569 1649 1619 1533
259 234 181 132 45 525 562 387 418 613 677 665 648 607 416 303 505 437 552 709 1002 1624 1645 1279 1304 1314 1733 1910 2266 1862 1848 1456 1069 995 677 309 192 220 174 537 664 739 721 863 1314 1767 1850 1636 1652
9 20 40 88 248 169 97 84 6 121 721 712 733 673 477 339 600 853 503 271 723 1015 1500 1323 1190 1314 1639 1701 1534 2180 1921 1443 903 925 870 502 42 4 50 96 568 601 563 704 1078 1502 1920 1896 1828
1 3 45 35 65 174 221 24 10 319 917 648 470 714 608 438 525 762 646 458 516 685 949 1371 1305 1474 1427 1724 1522 1314 1190 920 608 336 101 133 16 0 0 17 28 250 745 713 927 1267 1667 1859 743
0 7 2 115 72 338 112 82 57 310 619 557 587 930 751 596 616 712 906 835 877 840 823 1013 1306 1309 1279 1391 1084 1035 894 715 487 344 175 85 16 0 0 0 0 0 117 98 194 184 565 1101 316
0 0 0 46 510 363 233 127 120 188 357 651 542 905 760 684 856 884 944 913 865 1043 1072 1079 1167 1126 1065 1063 1129 951 716 126 34 1 186 187 63 0 0 0 0 0 0 3 6 38 66 484 462
0 0 0 0 146 176 268 197 1 309 869 628 503 778 870 809 874 927 891 840 752 732 877 1071 1183 1035 992 1102 592 108 433 107 0 8 112 177 93 41 0 0 0 0 0 0 0 0 89 313 331
0 0 0 0 0 52 273 248 134 535 797 698 643 505 551 787 816 866 794 750 761 669 696 761 731 627 864 1061 593 235 467 165 33 52 133 184 125 89 24 2 0 12 4 0 0 0 42 232 298
0 0 0 0 0 70 122 122 250 861 789 780 746 644 569 477 465 799 697 732 601 562 511 608 560 556 819 818 708 618 540 313 99 128 142 168 170 130 136 35 8 23 24 82 78 86 183 264 311
0 0 0 0 0 1 0 0 356 866 807 760 730 716 664 492 210 513 357 574 419 351 692 749 853 661 583 776 494 328 68 47 12 102 161 163 152 214 231 79 54 62 51 68 154 173 165 215 140
0 0 0 19 0 0 0 0 57 843 818 716 738 740 703 512 285 142 200 402 281 271 626 809 772 587 523 636 537 372 24 0 0 0 110 135 242 240 161 190 185 145 122 88 117 211 177 137 98
0 0 0 9 0 0 0 0 0 756 890 824 757 729 722 530 428 220 181 331 334 318 650 850 1000 838 618 985 760 478 467 289 176 124 94 89 151 265 253 221 255 142 263 193 199 250 248 339 496
0 0 0 0 0 0 0 0 0 16 582 920 844 811 725 582 392 278 281 341 464 446 521 742 899 778 1199 1171 845 741 793 610 544 373 105 24 119 167 174 58 101 230 305 336 331 261 281 244 364
0 0 0 0 0 0 0 0 0 0 0 610 764 831 792 687 487 390 331 423 480 575 694 713 776 1029 1300 1331 969 934 748 586 382 294 217 117 149 237 138 21 23 220 361 255 395 357 216 216 288
0 0 0 0 0 0 0 0 41 0 16 1 597 811 841 725 580 681 772 794 705 720 1102 901 972 1326 1366 1288 1141 1428 1029 989 705 252 174 151 108 228 167 45 40 98 155 235 160 164 114 86 238
0 0 0 0 0 0 0 0 15 1 21 0 30 569 1267 827 851 1041 1093 727 708 1033 1241 1557 1223 1163 984 788 923 1392 1267 1023 961 984 625 353 147 59 299 206 87 70 23 113 135 162 134 144 124
0 0 0 0 0 0 0 0 0 0 0 2 980 1144 607 766 977 19 50 76 317 820 1630 2010 1070 653 568 535 512 550 1393 1036 849 796 907 632 476 243 161 315 83 44 40 52 112 108 223 250 147
0 0 0 0 0 0 14 0 0 0 0 1 165 974 586 511 271 0 12 320 36 259 2126 2556 1439 810 496 373 462 668 1129 1449 1069 782 881 903 967 715 570 277 146 62 13 18 71 110 66 212 268
0 0 0 0 0 0 0 0 2 0 0 0 7 50 563 252 419 150 111 108 61 23 151 2758 2188 1641 1270 775 795 1119 1698 1578 1465 1200 710 853 1102 963 713 358 179 145 103 118 169 250 159 186 334
0 0 0 0 0 6 0 0 8 24 110 264 35 29 228 59 62 52 59 28 211 258 554 640 2659 2380 2288 2145 2145 1677 2204 2138 1720 1426 1236 935 1072 1124 908 634 433 359 239 186 241 344 337 205 142
0 0 0 0 0 0 0 0 9 21 0 0 117 1013 1190 660 131 801 1521 1169 263 522 7 130 912 730 2171 2585 2302 2474 2385 2421 2309 1882 1442 1265 1013 1045 699 762 117 0 2 522 551 583 655 741 625
0 0 0 0 46 47 12 1 67 36 14 349 6 4 133 142 973 1056 1167 1385 1375 1009 688 1184 1348 344 8 2 1251 2363 2713 2544 2682 2153 1735 1404 716 112 242 139 94 128 168 386 945 683 584 608 703
0 0 0 0 2 18 6 0 10 5 0 345 0 22 43 11 728 856 795 917 1150 967 1036 1082 1291 925 81 520 1678 2415 2660 2688 2662 2543 2316 1718 1124 133 82 494 45 7 136 813 1051 568 609 682 613
0 0 0 1 3 0 0 7 0 0 0 0 198 629 383 0 508 445 1 776 897 946 746 773 637 822 1036 1133 1423 1318 2275 2612 2725 2424 2170 1978 1633 964 757 379 105 23 404 712 862 754 709 610 478